Find Iridium Next SV114

NORAD ID: 41923 Int'l Des: 2017-003 Owner: IRIDS Country: US Constellation: Iridium NEXT operational
LEOCIRCULARPOLAR

現在のビュー

3D地球を読み込み中...

Iridium Next SV114について

説明を読み込み中...

次回通過

Passes for default location (London). Set your location on the main map for personalized predictions.

高度履歴

Loading altitude history...

軌道要素

1 41923U 17003G 26159.77400789 .00000046 00000-0 94689-5 0 9996
2 41923 86.3960 91.9816 0002399 83.3247 276.8222 14.34217874492046
Epoch: Jun 8, 2026 • Age: 8 hours

現在のステータス

高度 780.2 km
速度 7.46 km/s
衛星直下点 5.49°N, 17.22°W
打ち上げ日 Jan 14, 2017
運用期間 9.3 years
タイプ communications

技術仕様

分類 Payload
質量 860.00 kg
乾燥質量 700.00 kg
総質量 860.00 kg
長さ 3.10 m
直径 1.50 m
スパン 9.40 m
形状 Half Hex Prism+2 pan
製造者 OATKGA
バスタイプ EliteBus
フェーズステータス In Orbit
所有者/国 IRIDS/US

Most Searched